User: anonymous   Login
Location: Grand Lay
(47.3253°N, 0.9468°E)
Time: 16:07:03
(UTC+00:00)
Language:

CZ-4C R/B - Orbit

View from above orbital plane
View from above orbital plane
View from above satellite
View from above satellite

Ground track
Ground track

The orbit is defined by the following mean orbital elements,

1 36416U          26076.28631138 +.00000000 +00000-0 +16680-3 0 00000
2 36416  63.3865 293.7189 0690775   2.6994 357.7478 13.73002253    03
Epoch (UTC): 17 March 2026 06:52:17
Eccentricity: 0.0690775
inclination: 63.3865°
perigee height: 480 km
apogee height: 1498 km
right ascension of ascending node: 293.7189°
argument of perigee: 2.6994°
revolutions per day: 13.73002253
mean anomaly at epoch: 357.7478°

The dashed part of the orbit path shows where the satellite is in the earth's shadow,  

DLR